Robinson, IL

7:37 AM CDT on September 25, 2017 (GMT -0500)
Robinson Municipal

Weather History for KRSV - October, 2013

Change the Weather History Date:

Saturday, October 26, 2013

  Actual Average (KLWV) Record (KLWV)
Temperature  
Mean Temperature 49 °F -  
Max Temperature 65 °F 63 °F 82 °F (2000)
Min Temperature 34 °F 42 °F 29 °F (2013)
Degree Days  
Heating Degree Days 16    
Moisture  
Dew Point 34 °F    
Average Humidity 62    
Maximum Humidity 84    
Minimum Humidity 43    
Precipitation  
Precipitation 0.00 in - - ()
Sea Level Pressure  
Sea Level Pressure 30.11 in    
Wind  
Wind Speed 9 mph (WSW)    
Max Wind Speed 22 mph    
Max Gust Speed 28 mph    
Visibility 10 miles    
Events      
Averages and records for this station are not official NWS values.
T = Trace of Precipitation, MM = Missing Value Source: NWS Daily Summary

Daily Weather History Graph

Daily Weather History Graph

Search for Another Location

Airport or City:

Trip Planner

Search our weather history database for the weather conditions in past years. The results will help you decide how hot, cold, wet, or windy it might be!

Date:

Astronomy

Oct. 26, 2013 Rise Set
Actual Time 7:11 AM CDT 5:56 PM CDT
Civil Twilight 6:44 AM CDT 6:24 PM CDT
Nautical Twilight 6:13 AM CDT 6:55 PM CDT
Astronomical Twilight 5:42 AM CDT 7:26 PM CDT
Moon No Moon Rise 1:27 PM CDT (10/26)
Length of Visible Light 11h 39m
Length of Day
10h 44m
Waning Gibbous, 53% of the Moon is Illuminated
Oct 26
Waning Gibbous
Oct 26
Last Quarter
Nov 3
New
Nov 9
First Quarter
Nov 17
Full

Hourly Weather History & Observations

Time (CDT) Temp. Windchill Dew Point Humidity Pressure Visibility Wind Dir Wind Speed Gust Speed Precip Events Conditions
12:15 AM 36.5 °F 31.0 °F 29.7 °F 76% 30.27 in 10.0 mi South 6.9 mph - N/A   Clear
12:35 AM 36.1 °F 30.6 °F 29.8 °F 78% 30.26 in 10.0 mi SSW 6.9 mph - N/A   Clear
12:55 AM 36.7 °F 30.5 °F 29.8 °F 76% 30.26 in 10.0 mi South 8.1 mph - N/A   Clear
1:15 AM 36.5 °F 31.0 °F 29.8 °F 77% 30.25 in 10.0 mi South 6.9 mph - N/A   Clear
1:35 AM 35.8 °F 30.1 °F 29.7 °F 78% 30.25 in 10.0 mi SSW 6.9 mph - N/A   Clear
1:55 AM 35.1 °F 28.6 °F 29.7 °F 81% 30.24 in 10.0 mi South 8.1 mph - N/A   Clear
2:15 AM 34.9 °F 29.0 °F 30.0 °F 82% 30.23 in 10.0 mi South 6.9 mph - N/A   Clear
2:35 AM 35.1 °F 28.6 °F 29.8 °F 81% 30.23 in 10.0 mi South 8.1 mph - N/A   Clear
2:55 AM 35.1 °F 29.3 °F 30.0 °F 82% 30.22 in 10.0 mi SSW 6.9 mph - N/A   Clear
3:15 AM 34.7 °F 28.8 °F 30.0 °F 83% 30.22 in 10.0 mi SSW 6.9 mph - N/A   Clear
3:35 AM 35.1 °F 29.3 °F 30.2 °F 82% 30.21 in 10.0 mi SSW 6.9 mph - N/A   Clear
3:55 AM 34.7 °F 28.8 °F 30.2 °F 84% 30.20 in 10.0 mi South 6.9 mph - N/A   Clear
4:15 AM 34.7 °F 28.8 °F 30.2 °F 84% 30.20 in 10.0 mi South 6.9 mph - N/A   Clear
4:35 AM 34.7 °F 28.8 °F 30.2 °F 84% 30.19 in 10.0 mi SSW 6.9 mph - N/A   Clear
4:55 AM 35.8 °F 30.1 °F 30.6 °F 81% 30.19 in 10.0 mi SSW 6.9 mph - N/A   Clear
5:15 AM 35.4 °F 30.5 °F 30.4 °F 82% 30.19 in 10.0 mi SSW 5.8 mph - N/A   Clear
5:35 AM 35.6 °F 30.7 °F 30.6 °F 82% 30.19 in 10.0 mi South 5.8 mph - N/A   Clear
5:55 AM 37.0 °F 31.6 °F 31.6 °F 81% 30.19 in 10.0 mi South 6.9 mph - N/A   Mostly Cloudy
6:15 AM 38.7 °F 32.9 °F 32.0 °F 77% 30.17 in 10.0 mi SSW 8.1 mph - N/A   Overcast
6:35 AM 40.1 °F 34.7 °F 32.0 °F 73% 30.16 in 10.0 mi SSW 8.1 mph - N/A   Overcast
6:55 AM 40.5 °F 35.1 °F 32.0 °F 72% 30.15 in 10.0 mi SSW 8.1 mph - N/A   Overcast
7:15 AM 41.0 °F 34.7 °F 32.0 °F 70% 30.14 in 10.0 mi SSW 10.4 mph - N/A   Overcast
7:35 AM 41.9 °F 35.9 °F 32.0 °F 68% 30.14 in 10.0 mi SSW 10.4 mph - N/A   Overcast
7:55 AM 42.8 °F 36.2 °F 31.8 °F 65% 30.13 in 10.0 mi SSW 12.7 mph 19.6 mph N/A   Overcast
8:15 AM 43.7 °F 36.9 °F 31.8 °F 63% 30.13 in 10.0 mi SW 13.8 mph 20.7 mph N/A   Overcast
8:35 AM 44.1 °F 37.1 °F 32.0 °F 63% 30.12 in 10.0 mi SSW 15.0 mph 19.6 mph N/A   Overcast
8:55 AM 44.6 °F 37.8 °F 32.5 °F 63% 30.12 in 10.0 mi SW 15.0 mph 18.4 mph N/A   Overcast
9:15 AM 45.0 °F 38.5 °F 32.2 °F 61% 30.11 in 10.0 mi SSW 13.8 mph 21.9 mph N/A   Overcast
9:35 AM 46.0 °F 39.6 °F 32.9 °F 60% 30.09 in 10.0 mi SSW 15.0 mph 19.6 mph N/A   Overcast
9:55 AM 46.4 °F 41.5 °F 32.5 °F 59% 30.09 in 10.0 mi SSW 10.4 mph 18.4 mph N/A   Overcast
10:15 AM 47.1 °F - 32.9 °F 58% 30.08 in 10.0 mi SSW 15.0 mph 19.6 mph N/A   Overcast
10:35 AM 50.4 °F - 34.7 °F 55% 30.06 in 10.0 mi SW 12.7 mph 19.6 mph N/A   Mostly Cloudy
10:55 AM 52.7 °F - 35.1 °F 51% 30.06 in 10.0 mi SW 17.3 mph 23.0 mph N/A   Scattered Clouds
11:15 AM 54.0 °F - 35.8 °F 50% 30.05 in 10.0 mi WSW 19.6 mph 27.6 mph N/A   Scattered Clouds
11:35 AM 56.3 °F - 36.7 °F 48% 30.05 in 10.0 mi WSW 19.6 mph 25.3 mph N/A   Clear
11:55 AM 56.8 °F - 37.2 °F 48% 30.06 in 10.0 mi WSW 12.7 mph 24.2 mph N/A   Clear
12:15 PM 58.3 °F - 37.9 °F 47% 30.05 in 10.0 mi West 21.9 mph 27.6 mph N/A   Clear
12:35 PM 59.7 °F - 38.5 °F 45% 30.03 in 10.0 mi WSW 15.0 mph 21.9 mph N/A   Clear
12:55 PM 61.0 °F - 39.4 °F 45% 30.01 in 10.0 mi SW 18.4 mph 24.2 mph N/A   Clear
1:15 PM 62.1 °F - 39.7 °F 44% 29.99 in 10.0 mi SW 17.3 mph 21.9 mph N/A   Clear
1:35 PM 62.6 °F - 40.3 °F 44% 29.98 in 10.0 mi WSW 16.1 mph - N/A   Clear
1:55 PM 63.1 °F - 40.8 °F 44% 29.97 in 10.0 mi SW 17.3 mph 25.3 mph N/A   Clear
2:15 PM 63.7 °F - 41.0 °F 43% 29.97 in 10.0 mi SW 20.7 mph 25.3 mph N/A   Clear
2:35 PM 64.0 °F - 41.5 °F 44% 29.97 in 10.0 mi SW 16.1 mph 25.3 mph N/A   Clear
2:55 PM 64.4 °F - 41.9 °F 44% 29.97 in 10.0 mi WSW 17.3 mph 21.9 mph N/A   Clear
3:15 PM 64.4 °F - 41.9 °F 44% 29.97 in 10.0 mi WNW 16.1 mph 25.3 mph N/A   Scattered Clouds
3:35 PM 63.5 °F - 42.3 °F 46% 29.98 in 10.0 mi West 17.3 mph 20.7 mph N/A   Mostly Cloudy
3:55 PM 64.8 °F - 42.3 °F 44% 29.98 in 10.0 mi West 17.3 mph 21.9 mph N/A   Scattered Clouds
4:15 PM 64.8 °F - 42.1 °F 44% 29.98 in 10.0 mi West 16.1 mph 24.2 mph N/A   Scattered Clouds
4:35 PM 63.3 °F - 41.9 °F 46% 29.99 in 10.0 mi West 16.1 mph - N/A   Scattered Clouds
4:55 PM 62.1 °F - 41.9 °F 48% 30.00 in 10.0 mi WNW 11.5 mph - N/A   Mostly Cloudy
5:15 PM 61.7 °F - 40.3 °F 45% 30.01 in 10.0 mi NW 12.7 mph - N/A   Scattered Clouds
5:35 PM 60.4 °F - 40.5 °F 48% 30.01 in 10.0 mi WNW 9.2 mph - N/A   Scattered Clouds
5:55 PM 59.0 °F - 38.8 °F 47% 30.02 in 10.0 mi NW 10.4 mph 16.1 mph N/A   Scattered Clouds
6:15 PM 57.6 °F - 37.4 °F 47% 30.03 in 10.0 mi NW 8.1 mph - N/A   Clear
6:35 PM 56.5 °F - 36.1 °F 47% 30.05 in 10.0 mi NNW 10.4 mph 17.3 mph N/A   Clear
6:55 PM 54.1 °F - 35.6 °F 50% 30.07 in 10.0 mi NW 9.2 mph - N/A   Clear
7:15 PM 52.7 °F - 34.5 °F 50% 30.08 in 10.0 mi NW 8.1 mph - N/A   Clear
7:35 PM 51.1 °F - 34.0 °F 52% 30.08 in 10.0 mi NW 8.1 mph - N/A   Clear
7:55 PM 51.1 °F - 32.4 °F 49% 30.09 in 10.0 mi NW 8.1 mph - N/A   Clear
8:15 PM 50.5 °F - 32.0 °F 49% 30.09 in 10.0 mi NNW 8.1 mph - N/A   Clear
8:35 PM 49.1 °F - 32.0 °F 52% 30.10 in 10.0 mi NNW 8.1 mph - N/A   Clear
8:55 PM 47.7 °F - 32.2 °F 55% 30.11 in 10.0 mi NNW 4.6 mph - N/A   Clear
9:15 PM 46.8 °F - 32.4 °F 57% 30.11 in 10.0 mi NNW 4.6 mph - N/A   Clear
9:35 PM 45.0 °F 43.5 °F 32.4 °F 61% 30.12 in 10.0 mi NW 3.5 mph - N/A   Clear
9:55 PM 42.8 °F 41.1 °F 32.2 °F 66% 30.12 in 10.0 mi WNW 3.5 mph - N/A   Clear
10:15 PM 41.2 °F 39.2 °F 32.7 °F 72% 30.13 in 10.0 mi WNW 3.5 mph - N/A   Clear
10:35 PM 41.2 °F - 32.9 °F 72% 30.13 in 10.0 mi Calm Calm - N/A   Clear
10:55 PM 42.6 °F - 32.9 °F 68% 30.13 in 10.0 mi Calm Calm - N/A   Clear
11:15 PM 37.9 °F - 32.2 °F 80% 30.12 in 10.0 mi Calm Calm - N/A   Clear
11:35 PM 37.8 °F - 32.7 °F 82% 30.12 in 10.0 mi Calm Calm - N/A   Clear
11:55 PM 38.5 °F - 33.1 °F 81% 30.12 in 10.0 mi Calm Calm - N/A   Clear